Location: Argonnex
(45.9500°N, 6.1333°E)
Time: 09:19:09
(UTC+00:00)

Cosmos 2266 Rocket - Pass Details

Date: 06 October 2023
Orbit: 933 x 1008 km, 82.9° (Epoch: 10 December)

Event Time Altitude Azimuth Distance (km) Brightness Sun altitude
Exits shadow 02:57:55 34° 323° (NW) 1,603 5.0 -28.3°
Drops below altitude 10° 03:02:09 10° 356° (N) 2,796 6.6 -27.6°
Sets 03:04:54 0° 4° (N) 3,751 7.4 -27.2°
